2023/09/22 00:00:00, 2.7,20.1
2023/09/22 00:10:00, 2.5,20.1
2023/09/22 00:20:00, 2.5,20.1
2023/09/22 00:30:00, 2.5,20.0
2023/09/22 00:40:00, 2.6,19.9
2023/09/22 00:50:00, 2.6,20.1
2023/09/22 01:00:00, 2.6,19.8
2023/09/22 01:10:00, 2.7,20.0
2023/09/22 01:20:00, 3.1,19.8
2023/09/22 01:30:00, 3.4,19.9
2023/09/22 01:40:00, 4.0,19.8
2023/09/22 01:50:00, 9.6,19.7
2023/09/22 02:00:00,13.4,19.8
2023/09/22 02:10:00,14.5,19.6
2023/09/22 02:20:00,14.8,19.7
2023/09/22 02:30:00,13.6,19.8
2023/09/22 02:40:00,13.5,19.7
2023/09/22 02:50:00, 3.5,19.8
2023/09/22 03:00:00, 3.3,19.5
2023/09/22 03:10:00, 5.6,19.7
2023/09/22 03:20:00,12.1,19.7
2023/09/22 03:30:00,12.9,19.6
2023/09/22 03:40:00,12.0,19.7
2023/09/22 03:50:00,10.8,19.7
2023/09/22 04:00:00,10.1,19.5
2023/09/22 04:10:00, 9.8,19.5
2023/09/22 04:20:00, 9.7,19.7
2023/09/22 04:30:00, 9.7,19.7
2023/09/22 04:40:00, 9.8,19.5
2023/09/22 04:50:00,10.2,19.6
2023/09/22 05:00:00,10.9,19.6
2023/09/22 05:10:00,11.4,19.6
2023/09/22 05:20:00,12.2,19.5
2023/09/22 05:30:00,13.1,19.6
2023/09/22 05:40:00,12.7,19.8
2023/09/22 05:50:00,12.3,19.6
2023/09/22 06:00:00,12.6,19.6
2023/09/22 06:10:00,12.8,19.8
2023/09/22 06:20:00,13.0,19.6
2023/09/22 06:30:00,13.4,19.8
2023/09/22 06:40:00,13.3,20.2
2023/09/22 06:50:00,12.9,19.9
2023/09/22 07:00:00,12.6,19.8
2023/09/22 07:10:00,12.5,19.9
2023/09/22 07:20:00,12.9,20.0
2023/09/22 07:30:00,13.0,20.0
2023/09/22 07:40:00,13.0,20.1
2023/09/22 07:50:00,12.9,20.0
2023/09/22 08:00:00,12.8,20.4
2023/09/22 08:10:00,12.9,20.7
2023/09/22 08:20:00,13.0,20.8
2023/09/22 08:30:00,12.4,20.4
2023/09/22 08:40:00, 7.0,20.8
2023/09/22 08:50:00, 3.7,20.9
2023/09/22 09:00:00, 5.7,20.6
2023/09/22 09:10:00,12.2,20.7
2023/09/22 09:20:00,12.2,20.6
2023/09/22 09:30:00,11.8,20.2
2023/09/22 09:40:00,11.5,20.3
2023/09/22 09:50:00,11.3,21.2
2023/09/22 10:00:00,11.5,21.4
2023/09/22 10:10:00,11.6,21.7
2023/09/22 10:20:00,12.2,21.8
2023/09/22 10:30:00,12.5,21.3
2023/09/22 10:40:00,12.3,21.2
2023/09/22 10:50:00,13.0,21.8
2023/09/22 11:00:00,13.8,22.1
2023/09/22 11:10:00,10.7,22.4
2023/09/22 11:20:00, 2.9,23.3
2023/09/22 11:30:00, 2.8,23.6
2023/09/22 11:40:00, 2.9,23.6
2023/09/22 11:50:00, 2.9,24.5
2023/09/22 12:00:00, 2.8,22.6
2023/09/22 12:10:00, 3.0,22.7
2023/09/22 12:20:00, 3.0,22.9
2023/09/22 12:30:00, 3.0,22.7
2023/09/22 12:40:00, 3.1,23.3
2023/09/22 12:50:00, 3.0,23.3
2023/09/22 13:00:00, 3.0,23.7
2023/09/22 13:10:00, 2.9,24.0
2023/09/22 13:20:00, 2.9,24.0
2023/09/22 13:30:00, 2.9,23.2
2023/09/22 13:40:00, 2.8,24.3
2023/09/22 13:50:00, 2.8,24.6
2023/09/22 14:00:00, 2.9,23.9
2023/09/22 14:10:00, 2.8,24.1
2023/09/22 14:20:00, 3.0,23.3
2023/09/22 14:30:00, 6.6,22.0
2023/09/22 14:40:00,12.1,21.9
2023/09/22 14:50:00,13.2,21.5
2023/09/22 15:00:00,12.9,21.0
2023/09/22 15:10:00,12.8,20.8
2023/09/22 15:20:00,12.6,20.6
2023/09/22 15:30:00,13.1,20.6
2023/09/22 15:40:00,13.1,20.6
2023/09/22 15:50:00,13.5,20.4
2023/09/22 16:00:00,13.6,20.4
2023/09/22 16:10:00,13.6,20.2
2023/09/22 16:20:00,13.4,20.4
2023/09/22 16:30:00,13.2,20.4
2023/09/22 16:40:00,13.2,20.7
2023/09/22 16:50:00,13.1,20.4
2023/09/22 17:00:00,13.0,20.6
2023/09/22 17:10:00,13.1,20.4
2023/09/22 17:20:00,13.1,20.4
2023/09/22 17:30:00,13.1,20.2
2023/09/22 17:40:00,13.2,20.1
2023/09/22 17:50:00,13.2,20.1
2023/09/22 18:00:00,13.2,20.0
2023/09/22 18:10:00,13.1,19.7
2023/09/22 18:20:00,12.2,19.8
2023/09/22 18:30:00,11.7,19.6
2023/09/22 18:40:00,11.2,19.8
2023/09/22 18:50:00,10.6,19.8
2023/09/22 19:00:00,10.4,19.8
2023/09/22 19:10:00,10.2,19.7
2023/09/22 19:20:00,10.1,19.5
2023/09/22 19:30:00,10.2,19.4
2023/09/22 19:40:00,10.1,19.5
2023/09/22 19:50:00,10.1,19.4
2023/09/22 20:00:00,10.1,19.2
2023/09/22 20:10:00,10.0,19.2
2023/09/22 20:20:00,10.0,18.8
2023/09/22 20:30:00,10.0,19.1
2023/09/22 20:40:00,10.1,19.0
2023/09/22 20:50:00,10.3,19.1
2023/09/22 21:00:00,10.4,18.7
2023/09/22 21:10:00,10.6,18.8
2023/09/22 21:20:00,10.7,18.5
2023/09/22 21:30:00,10.8,18.3
2023/09/22 21:40:00,11.1,18.1
2023/09/22 21:50:00,11.4,18.2
2023/09/22 22:00:00,11.7,18.3
2023/09/22 22:10:00,11.9,18.4
2023/09/22 22:20:00,12.0,18.5
2023/09/22 22:30:00,12.2,18.4
2023/09/22 22:40:00,12.3,18.4
2023/09/22 22:50:00,12.5,18.3
2023/09/22 23:00:00,12.4,18.6
2023/09/22 23:10:00,12.6,18.2
2023/09/22 23:20:00,12.6,18.4
2023/09/22 23:30:00,12.7,18.4
2023/09/22 23:40:00,12.8,18.5
2023/09/22 23:50:00,12.9,18.4
